Weather History for KSUS - February, 2013

Change the Weather History Date:

Monday, February 25, 2013

  Actual Average Record
Temperature  
Mean Temperature 34 °F -  
Max Temperature 45 °F 45 °F 71 °F (2009)
Min Temperature 24 °F 27 °F 3 °F (2003)
Degree Days  
Heating Degree Days 30    
Moisture  
Dew Point 27 °F    
Average Humidity 71    
Maximum Humidity 89    
Minimum Humidity 49    
Precipitation  
Precipitation 0.18 in - - ()
Sea Level Pressure  
Sea Level Pressure 29.92 in    
Wind  
Wind Speed 6 mph (ENE)    
Max Wind Speed 20 mph    
Max Gust Speed 28 mph    
Visibility 8 miles    
Events Rain , Snow    
Averages and records for this station are not official NWS values.
T = Trace of Precipitation, MM = Missing Value Source: NWS Daily Summary

Daily Weather History Graph

Daily Weather History Graph

Search for Another Location

Airport or City:

Trip Planner

Search our weather history database for the weather conditions in past years. The results will help you decide how hot, cold, wet, or windy it might be!

Date:

Astronomy

Feb. 25, 2013 Rise Set
Actual Time 6:40 AM CST 5:51 PM CST
Civil Twilight 6:13 AM CST 6:18 PM CST
Nautical Twilight 5:42 AM CST 6:49 PM CST
Astronomical Twilight 5:11 AM CST 7:20 PM CST
Moon 6:04 PM CST (2/25) 6:10 AM CST (2/25)
Length of Visible Light 12h 05m
Length of Day
11h 11m
Full, 100% of the Moon is Illuminated
Feb 25
Full
Feb 25
Full
Mar 4
Last Quarter
Mar 11
New
Mar 19
First Quarter

Hourly Weather History & Observations

Time (CST) Temp. Windchill Dew Point Humidity Pressure Visibility Wind Dir Wind Speed Gust Speed Precip Events Conditions
12:54 AM 27.0 °F - 23.0 °F 85% 30.08 in 7.0 mi Calm Calm - N/A   Clear
1:54 AM 27.0 °F - 23.0 °F 85% 30.09 in 6.0 mi Calm Calm - N/A   Clear
2:54 AM 28.9 °F 25.2 °F 25.0 °F 85% 30.07 in 7.0 mi ENE 3.5 mph - N/A   Clear
3:54 AM 27.0 °F - 23.0 °F 85% 30.05 in 6.0 mi Calm Calm - N/A   Clear
4:54 AM 27.0 °F - 23.0 °F 85% 30.06 in 6.0 mi Calm Calm - N/A   Clear
5:54 AM 26.1 °F - 21.9 °F 84% 30.02 in 5.0 mi Calm Calm - N/A   Clear
6:54 AM 24.1 °F - 21.0 °F 88% 30.04 in 5.0 mi Calm Calm - N/A   Mostly Cloudy
7:54 AM 28.9 °F - 26.1 °F 89% 30.04 in 5.0 mi Calm Calm - N/A   Clear
8:54 AM 37.0 °F 30.4 °F 27.0 °F 67% 30.03 in 8.0 mi ENE 9.2 mph - N/A   Clear
9:54 AM 43.0 °F 39.5 °F 26.1 °F 51% 30.02 in 10.0 mi East 5.8 mph - N/A   Clear
10:54 AM 45.0 °F 39.7 °F 27.0 °F 49% 30.01 in 10.0 mi East 10.4 mph 20.7 mph N/A   Mostly Cloudy
11:54 AM 45.0 °F 38.9 °F 28.0 °F 52% 29.99 in 10.0 mi East 12.7 mph 19.6 mph N/A   Overcast
12:54 PM 45.0 °F 38.5 °F 28.9 °F 53% 29.95 in 10.0 mi ENE 13.8 mph - N/A   Overcast
1:54 PM 45.0 °F 37.6 °F 30.0 °F 56% 29.88 in 10.0 mi ENE 17.3 mph 24.2 mph N/A   Clear
2:54 PM 44.1 °F 35.9 °F 28.9 °F 55% 29.84 in 10.0 mi ENE 19.6 mph 25.3 mph N/A   Mostly Cloudy
3:54 PM 44.1 °F 36.5 °F 28.9 °F 55% 29.84 in 10.0 mi ENE 17.3 mph - N/A   Overcast
4:54 PM 42.1 °F 35.7 °F 30.0 °F 62% 29.81 in 10.0 mi NE 11.5 mph - N/A   Overcast
5:54 PM 39.9 °F 31.8 °F 28.9 °F 65% 29.79 in 10.0 mi NE 15.0 mph 21.9 mph N/A   Overcast
6:54 PM 39.9 °F 33.4 °F 30.9 °F 70% 29.84 in 10.0 mi NE 10.4 mph - N/A   Overcast
7:54 PM 39.9 °F 33.4 °F 30.9 °F 70% 29.85 in 10.0 mi NNE 10.4 mph - N/A   Overcast
8:54 PM 39.0 °F 32.8 °F 30.0 °F 70% 29.81 in 10.0 mi NE 9.2 mph 20.7 mph 0.00 in   Overcast
9:38 PM 37.4 °F 27.8 °F 30.2 °F 75% 29.73 in 10.0 mi NE 17.3 mph 23.0 mph 0.00 in Rain Light Rain
9:54 PM 36.0 °F 25.6 °F 30.0 °F 79% 29.74 in 2.5 mi NE 18.4 mph 27.6 mph 0.03 in Snow Light Snow
10:54 PM 35.1 °F 25.9 °F 30.9 °F 85% 29.70 in 5.0 mi NE 13.8 mph 25.3 mph 0.06 in Rain Light Rain
11:54 PM 36.0 °F 26.0 °F 32.0 °F 86% 29.63 in 5.0 mi NE 17.3 mph - 0.09 in Rain Light Rain